contact:dominique.lefevre@mio.osupytheas.fr, maurice.libes@osupytheas.fr, didier.mallarino@osupytheas.fr
Project:EMSO http://www.emso-fr.org/EMSO-France
Depth: 2436.0 m
Title:EMSO Ligure Ouest : Data MII capteur MICROCAT
DateTime_Computer,Latitude,Longitude,Temperature,Conductivity,Pressure,DateTime_Instrument
DateTime_Computer,Latitude,Longitude,degC,S m-1,dbar,DateTime_Instrument
2023-07-26T00:01:02Z,42.805,6.029,13.3050,4.60149,2470.73,2023-7-26T02:03:20Z
2023-07-26T00:04:05Z,42.805,6.029,13.3046,4.60144,2470.693,2023-7-26T02:06:23Z
2023-07-26T00:07:08Z,42.805,6.029,13.3044,4.60157,2470.707,2023-7-26T02:09:26Z
2023-07-26T00:10:11Z,42.805,6.029,13.3054,4.60150,2470.73,2023-7-26T02:12:29Z
2023-07-26T00:13:14Z,42.805,6.029,13.3047,4.60127,2470.717,2023-7-26T02:15:32Z
2023-07-26T00:16:18Z,42.805,6.029,13.3047,4.60136,2470.707,2023-7-26T02:18:35Z
2023-07-26T00:19:21Z,42.805,6.029,13.3049,4.60134,2470.693,2023-7-26T02:21:38Z
2023-07-26T00:22:24Z,42.805,6.029,13.3039,4.60137,2470.67,2023-7-26T02:24:41Z
2023-07-26T00:25:27Z,42.805,6.029,13.3042,4.60126,2470.679,2023-7-26T02:27:44Z
2023-07-26T00:28:30Z,42.805,6.029,13.3043,4.60145,2470.707,2023-7-26T02:30:47Z
2023-07-26T00:31:33Z,42.805,6.029,13.3038,4.60132,2470.754,2023-7-26T02:33:51Z
2023-07-26T00:34:36Z,42.805,6.029,13.3052,4.60136,2470.707,2023-7-26T02:36:54Z
2023-07-26T00:37:39Z,42.805,6.029,13.3052,4.60152,2470.707,2023-7-26T02:39:57Z
2023-07-26T00:40:42Z,42.805,6.029,13.3037,4.60149,2470.693,2023-7-26T02:43:00Z
2023-07-26T00:43:45Z,42.805,6.029,13.3044,4.60135,2470.717,2023-7-26T02:46:03Z
2023-07-26T00:46:48Z,42.805,6.029,13.3036,4.60142,2470.693,2023-7-26T02:49:06Z
2023-07-26T00:49:51Z,42.805,6.029,13.3043,4.60137,2470.717,2023-7-26T02:52:09Z
2023-07-26T00:52:55Z,42.805,6.029,13.3037,4.60157,2470.73,2023-7-26T02:55:12Z
2023-07-26T00:55:58Z,42.805,6.029,13.3041,4.60147,2470.67,2023-7-26T02:58:15Z
2023-07-26T00:59:01Z,42.805,6.029,13.3043,4.60152,2470.707,2023-7-26T03:01:18Z
2023-07-26T01:02:04Z,42.805,6.029,13.3048,4.60160,2470.693,2023-7-26T03:04:21Z
2023-07-26T01:05:07Z,42.805,6.029,13.3034,4.60144,2470.67,2023-7-26T03:07:24Z
2023-07-26T01:08:10Z,42.805,6.029,13.3043,4.60145,2470.707,2023-7-26T03:10:28Z
2023-07-26T01:11:13Z,42.805,6.029,13.3038,4.60124,2470.693,2023-7-26T03:13:31Z
2023-07-26T01:14:16Z,42.805,6.029,13.3047,4.60140,2470.707,2023-7-26T03:16:34Z
2023-07-26T01:17:19Z,42.805,6.029,13.3045,4.60141,2470.684,2023-7-26T03:19:37Z
2023-07-26T01:20:22Z,42.805,6.029,13.3039,4.60140,2470.707,2023-7-26T03:22:40Z
2023-07-26T01:23:25Z,42.805,6.029,13.3051,4.60157,2470.707,2023-7-26T03:25:43Z
2023-07-26T01:26:28Z,42.805,6.029,13.3039,4.60145,2470.73,2023-7-26T03:28:46Z
2023-07-26T01:29:32Z,42.805,6.029,13.3041,4.60137,2470.693,2023-7-26T03:31:49Z
2023-07-26T01:32:35Z,42.805,6.029,13.3057,4.60144,2470.67,2023-7-26T03:34:52Z
2023-07-26T01:35:38Z,42.805,6.029,13.3043,4.60141,2470.67,2023-7-26T03:37:55Z
2023-07-26T01:38:41Z,42.805,6.029,13.3048,4.60138,2470.684,2023-7-26T03:40:58Z
2023-07-26T01:41:44Z,42.805,6.029,13.3039,4.60132,2470.67,2023-7-26T03:44:01Z
2023-07-26T01:44:47Z,42.805,6.029,13.3042,4.60131,2470.693,2023-7-26T03:47:04Z
2023-07-26T01:47:50Z,42.805,6.029,13.3037,4.60121,2470.67,2023-7-26T03:50:08Z
2023-07-26T01:50:53Z,42.805,6.029,13.3039,4.60110,2470.661,2023-7-26T03:53:11Z
2023-07-26T01:53:56Z,42.805,6.029,13.3044,4.60139,2470.661,2023-7-26T03:56:14Z
2023-07-26T01:56:59Z,42.805,6.029,13.3034,4.60143,2470.67,2023-7-26T03:59:17Z
2023-07-26T02:00:02Z,42.805,6.029,13.3043,4.60143,2470.693,2023-7-26T04:02:20Z
2023-07-26T02:03:05Z,42.805,6.029,13.3045,4.60142,2470.67,2023-7-26T04:05:23Z
2023-07-26T02:06:08Z,42.805,6.029,13.3045,4.60138,2470.67,2023-7-26T04:08:26Z
2023-07-26T02:09:12Z,42.805,6.029,13.3036,4.60150,2470.67,2023-7-26T04:11:29Z
2023-07-26T02:12:15Z,42.805,6.029,13.3037,4.60123,2470.684,2023-7-26T04:14:32Z
2023-07-26T02:15:18Z,42.805,6.029,13.3047,4.60139,2470.661,2023-7-26T04:17:35Z
2023-07-26T02:18:21Z,42.805,6.029,13.3042,4.60130,2470.684,2023-7-26T04:20:38Z
2023-07-26T02:21:24Z,42.805,6.029,13.3046,4.60135,2470.684,2023-7-26T04:23:41Z
2023-07-26T02:24:27Z,42.805,6.029,13.3043,4.60132,2470.684,2023-7-26T04:26:45Z
2023-07-26T02:27:30Z,42.805,6.029,13.3047,4.60133,2470.707,2023-7-26T04:29:48Z
2023-07-26T02:30:33Z,42.805,6.029,13.3042,4.60151,2470.693,2023-7-26T04:32:51Z
2023-07-26T02:33:36Z,42.805,6.029,13.3046,4.60137,2470.646,2023-7-26T04:35:54Z
2023-07-26T02:36:39Z,42.805,6.029,13.3037,4.60147,2470.646,2023-7-26T04:38:57Z
2023-07-26T02:39:42Z,42.805,6.029,13.3034,4.60119,2470.679,2023-7-26T04:42:00Z
2023-07-26T02:42:45Z,42.805,6.029,13.3049,4.60135,2470.646,2023-7-26T04:45:03Z
2023-07-26T02:45:49Z,42.805,6.029,13.3038,4.60133,2470.661,2023-7-26T04:48:06Z
2023-07-26T02:48:52Z,42.805,6.029,13.3046,4.60132,2470.637,2023-7-26T04:51:09Z
2023-07-26T02:51:55Z,42.805,6.029,13.3042,4.60123,2470.646,2023-7-26T04:54:12Z
2023-07-26T02:54:58Z,42.805,6.029,13.3035,4.60117,2470.646,2023-7-26T04:57:15Z
2023-07-26T02:58:01Z,42.805,6.029,13.3043,4.60132,2470.646,2023-7-26T05:00:18Z
2023-07-26T03:01:04Z,42.805,6.029,13.3037,4.60122,2470.624,2023-7-26T05:03:22Z
2023-07-26T03:04:07Z,42.805,6.029,13.3034,4.60135,2470.646,2023-7-26T05:06:25Z
2023-07-26T03:07:10Z,42.805,6.029,13.3043,4.60139,2470.624,2023-7-26T05:09:28Z
2023-07-26T03:10:13Z,42.805,6.029,13.3048,4.60126,2470.661,2023-7-26T05:12:31Z
2023-07-26T03:13:16Z,42.805,6.029,13.3041,4.60132,2470.67,2023-7-26T05:15:34Z
2023-07-26T03:16:19Z,42.805,6.029,13.3039,4.60135,2470.661,2023-7-26T05:18:37Z
2023-07-26T03:19:22Z,42.805,6.029,13.3034,4.60124,2470.684,2023-7-26T05:21:40Z
2023-07-26T03:22:25Z,42.805,6.029,13.3034,4.60142,2470.661,2023-7-26T05:24:43Z
2023-07-26T03:25:29Z,42.805,6.029,13.3044,4.60117,2470.624,2023-7-26T05:27:46Z
2023-07-26T03:28:32Z,42.805,6.029,13.3031,4.60116,2470.637,2023-7-26T05:30:49Z
2023-07-26T03:31:35Z,42.805,6.029,13.3050,4.60127,2470.646,2023-7-26T05:33:52Z
2023-07-26T03:34:38Z,42.805,6.029,13.3045,4.60127,2470.624,2023-7-26T05:36:55Z
2023-07-26T03:37:41Z,42.805,6.029,13.3037,4.60122,2470.637,2023-7-26T05:39:59Z
2023-07-26T03:40:44Z,42.805,6.029,13.3036,4.60125,2470.661,2023-7-26T05:43:02Z
2023-07-26T03:43:47Z,42.805,6.029,13.3049,4.60120,2470.67,2023-7-26T05:46:05Z
2023-07-26T03:46:50Z,42.805,6.029,13.3046,4.60114,2470.637,2023-7-26T05:49:08Z
2023-07-26T03:49:53Z,42.805,6.029,13.3038,4.60112,2470.637,2023-7-26T05:52:11Z
2023-07-26T03:52:56Z,42.805,6.029,13.3037,4.60117,2470.624,2023-7-26T05:55:14Z
2023-07-26T03:55:59Z,42.805,6.029,13.3036,4.60111,2470.661,2023-7-26T05:58:17Z
2023-07-26T03:59:02Z,42.805,6.029,13.3039,4.60134,2470.646,2023-7-26T06:01:20Z
2023-07-26T04:02:06Z,42.805,6.029,13.3042,4.60128,2470.61,2023-7-26T06:04:23Z
2023-07-26T04:05:09Z,42.805,6.029,13.3036,4.60122,2470.624,2023-7-26T06:07:26Z
2023-07-26T04:08:12Z,42.805,6.029,13.3039,4.60131,2470.624,2023-7-26T06:10:29Z
2023-07-26T04:11:15Z,42.805,6.029,13.3039,4.60125,2470.661,2023-7-26T06:13:32Z
2023-07-26T04:14:18Z,42.805,6.029,13.3030,4.60104,2470.637,2023-7-26T06:16:35Z
2023-07-26T04:17:21Z,42.805,6.029,13.3033,4.60116,2470.661,2023-7-26T06:19:39Z
2023-07-26T04:20:24Z,42.805,6.029,13.3038,4.60120,2470.6,2023-7-26T06:22:42Z
2023-07-26T04:23:27Z,42.805,6.029,13.3039,4.60114,2470.624,2023-7-26T06:25:45Z
2023-07-26T04:26:30Z,42.805,6.029,13.3034,4.60122,2470.661,2023-7-26T06:28:48Z
2023-07-26T04:29:33Z,42.805,6.029,13.3035,4.60122,2470.637,2023-7-26T06:31:51Z
2023-07-26T04:32:36Z,42.805,6.029,13.3036,4.60120,2470.624,2023-7-26T06:34:54Z
2023-07-26T04:35:39Z,42.805,6.029,13.3044,4.60125,2470.6,2023-7-26T06:37:57Z
2023-07-26T04:38:42Z,42.805,6.029,13.3033,4.60113,2470.624,2023-7-26T06:41:00Z
2023-07-26T04:41:46Z,42.805,6.029,13.3036,4.60119,2470.614,2023-7-26T06:44:03Z
2023-07-26T04:44:49Z,42.805,6.029,13.3031,4.60115,2470.577,2023-7-26T06:47:06Z
2023-07-26T04:47:52Z,42.805,6.029,13.3034,4.60123,2470.586,2023-7-26T06:50:09Z
2023-07-26T04:50:55Z,42.805,6.029,13.3041,4.60125,2470.624,2023-7-26T06:53:12Z
2023-07-26T04:53:58Z,42.805,6.029,13.3034,4.60124,2470.624,2023-7-26T06:56:15Z
2023-07-26T04:57:01Z,42.805,6.029,13.3031,4.60108,2470.6,2023-7-26T06:59:19Z
2023-07-26T05:00:04Z,42.805,6.029,13.3041,4.60135,2470.624,2023-7-26T07:02:22Z
2023-07-26T05:03:07Z,42.805,6.029,13.3029,4.60110,2470.6,2023-7-26T07:05:25Z
2023-07-26T05:06:10Z,42.805,6.029,13.3030,4.60106,2470.614,2023-7-26T07:08:28Z
2023-07-26T05:09:13Z,42.805,6.029,13.3042,4.60132,2470.6,2023-7-26T07:11:31Z
2023-07-26T05:12:16Z,42.805,6.029,13.3032,4.60122,2470.6,2023-7-26T07:14:34Z
2023-07-26T05:15:19Z,42.805,6.029,13.3030,4.60113,2470.577,2023-7-26T07:17:37Z
2023-07-26T05:18:23Z,42.805,6.029,13.3033,4.60105,2470.577,2023-7-26T07:20:40Z
2023-07-26T05:21:26Z,42.805,6.029,13.3035,4.60110,2470.624,2023-7-26T07:23:43Z
2023-07-26T05:24:29Z,42.805,6.029,13.3026,4.60107,2470.624,2023-7-26T07:26:46Z
2023-07-26T05:27:32Z,42.805,6.029,13.3034,4.60103,2470.614,2023-7-26T07:29:49Z
2023-07-26T05:30:35Z,42.805,6.029,13.3034,4.60117,2470.6,2023-7-26T07:32:52Z
2023-07-26T05:33:38Z,42.805,6.029,13.3039,4.60110,2470.591,2023-7-26T07:35:56Z
2023-07-26T05:36:41Z,42.805,6.029,13.3034,4.60114,2470.577,2023-7-26T07:38:59Z
2023-07-26T05:39:44Z,42.805,6.029,13.3031,4.60110,2470.6,2023-7-26T07:42:02Z
2023-07-26T05:42:47Z,42.805,6.029,13.3031,4.60106,2470.577,2023-7-26T07:45:05Z
2023-07-26T05:45:50Z,42.805,6.029,13.3031,4.60119,2470.6,2023-7-26T07:48:08Z
2023-07-26T05:48:53Z,42.805,6.029,13.3033,4.60118,2470.614,2023-7-26T07:51:11Z
2023-07-26T05:51:56Z,42.805,6.029,13.3039,4.60119,2470.637,2023-7-26T07:54:14Z
2023-07-26T05:54:59Z,42.805,6.029,13.3047,4.60135,2470.624,2023-7-26T07:57:17Z
2023-07-26T05:58:03Z,42.805,6.029,13.3037,4.60155,2470.591,2023-7-26T08:00:20Z
2023-07-26T06:01:06Z,42.805,6.029,13.3036,4.60119,2470.637,2023-7-26T08:03:23Z
2023-07-26T06:04:09Z,42.805,6.029,13.3038,4.60112,2470.614,2023-7-26T08:06:26Z
2023-07-26T06:07:12Z,42.805,6.029,13.3041,4.60116,2470.614,2023-7-26T08:09:29Z
2023-07-26T06:10:15Z,42.805,6.029,13.3031,4.60119,2470.577,2023-7-26T08:12:32Z
2023-07-26T06:13:18Z,42.805,6.029,13.3036,4.60120,2470.577,2023-7-26T08:15:36Z
2023-07-26T06:16:21Z,42.805,6.029,13.3035,4.60108,2470.577,2023-7-26T08:18:39Z
2023-07-26T06:19:24Z,42.805,6.029,13.3034,4.60127,2470.577,2023-7-26T08:21:42Z
2023-07-26T06:22:27Z,42.805,6.029,13.3033,4.60104,2470.577,2023-7-26T08:24:45Z
2023-07-26T06:25:30Z,42.805,6.029,13.3058,4.60127,2470.6,2023-7-26T08:27:48Z
2023-07-26T06:28:33Z,42.805,6.029,13.3036,4.60117,2470.577,2023-7-26T08:30:51Z
2023-07-26T06:31:36Z,42.805,6.029,13.3036,4.60106,2470.577,2023-7-26T08:33:53Z
2023-07-26T06:34:39Z,42.805,6.029,13.3040,4.60121,2470.591,2023-7-26T08:36:56Z
2023-07-26T06:37:42Z,42.805,6.029,13.3036,4.60114,2470.6,2023-7-26T08:39:59Z
2023-07-26T06:40:45Z,42.805,6.029,13.3045,4.60122,2470.567,2023-7-26T08:43:02Z
2023-07-26T06:43:48Z,42.805,6.029,13.3041,4.60129,2470.591,2023-7-26T08:46:06Z
2023-07-26T06:46:51Z,42.805,6.029,13.3037,4.60120,2470.624,2023-7-26T08:49:09Z
2023-07-26T06:49:54Z,42.805,6.029,13.3031,4.60117,2470.6,2023-7-26T08:52:12Z
2023-07-26T06:52:57Z,42.805,6.029,13.3036,4.60118,2470.6,2023-7-26T08:55:15Z
2023-07-26T06:56:00Z,42.805,6.029,13.3037,4.60121,2470.6,2023-7-26T08:58:18Z
2023-07-26T06:59:03Z,42.805,6.029,13.3034,4.60107,2470.6,2023-7-26T09:01:21Z
2023-07-26T07:02:06Z,42.805,6.029,13.3031,4.60117,2470.591,2023-7-26T09:04:24Z
2023-07-26T07:05:10Z,42.805,6.029,13.3026,4.60112,2470.6,2023-7-26T09:07:27Z
2023-07-26T07:08:13Z,42.805,6.029,13.3037,4.60110,2470.591,2023-7-26T09:10:30Z
2023-07-26T07:11:16Z,42.805,6.029,13.3028,4.60110,2470.614,2023-7-26T09:13:33Z
2023-07-26T07:14:19Z,42.805,6.029,13.3032,4.60109,2470.577,2023-7-26T09:16:36Z
2023-07-26T07:17:22Z,42.805,6.029,13.3035,4.60111,2470.6,2023-7-26T09:19:39Z
2023-07-26T07:20:25Z,42.805,6.029,13.3034,4.60106,2470.6,2023-7-26T09:22:43Z
2023-07-26T07:23:28Z,42.805,6.029,13.3040,4.60107,2470.577,2023-7-26T09:25:46Z
2023-07-26T07:26:31Z,42.805,6.029,13.3034,4.60112,2470.577,2023-7-26T09:28:49Z
2023-07-26T07:29:34Z,42.805,6.029,13.3033,4.60105,2470.6,2023-7-26T09:31:52Z
2023-07-26T07:32:37Z,42.805,6.029,13.3031,4.60106,2470.637,2023-7-26T09:34:55Z
2023-07-26T07:35:40Z,42.805,6.029,13.3031,4.60110,2470.591,2023-7-26T09:37:58Z
2023-07-26T07:38:43Z,42.805,6.029,13.3032,4.60139,2470.591,2023-7-26T09:41:01Z
2023-07-26T07:41:47Z,42.805,6.029,13.3039,4.60117,2470.6,2023-7-26T09:44:04Z
2023-07-26T07:44:50Z,42.805,6.029,13.3039,4.60120,2470.614,2023-7-26T09:47:07Z
2023-07-26T07:47:53Z,42.805,6.029,13.3037,4.60148,2470.577,2023-7-26T09:50:10Z
2023-07-26T07:50:56Z,42.805,6.029,13.3042,4.60110,2470.553,2023-7-26T09:53:13Z
2023-07-26T07:53:59Z,42.805,6.029,13.3032,4.60106,2470.577,2023-7-26T09:56:16Z
2023-07-26T07:57:02Z,42.805,6.029,13.3041,4.60137,2470.6,2023-7-26T09:59:20Z
2023-07-26T08:00:05Z,42.805,6.029,13.3031,4.60103,2470.637,2023-7-26T10:02:23Z
2023-07-26T08:03:08Z,42.805,6.029,13.3041,4.60112,2470.577,2023-7-26T10:05:26Z
2023-07-26T08:06:11Z,42.805,6.029,13.3032,4.60110,2470.591,2023-7-26T10:08:29Z
2023-07-26T08:09:14Z,42.805,6.029,13.3044,4.60125,2470.577,2023-7-26T10:11:32Z
2023-07-26T08:12:17Z,42.805,6.029,13.3037,4.60127,2470.53,2023-7-26T10:14:35Z
2023-07-26T08:15:20Z,42.805,6.029,13.3034,4.60114,2470.6,2023-7-26T10:17:38Z
2023-07-26T08:18:24Z,42.805,6.029,13.3031,4.60115,2470.577,2023-7-26T10:20:41Z
2023-07-26T08:21:27Z,42.805,6.029,13.3041,4.60137,2470.591,2023-7-26T10:23:44Z
2023-07-26T08:24:30Z,42.805,6.029,13.3034,4.60125,2470.6,2023-7-26T10:26:47Z
2023-07-26T08:27:33Z,42.805,6.029,13.3056,4.60120,2470.6,2023-7-26T10:29:50Z
2023-07-26T08:30:34Z,42.805,6.029,13.3040,4.60144,2470.6,2023-7-26T10:32:52Z
2023-07-26T08:33:37Z,42.805,6.029,13.3032,4.60104,2470.6,2023-7-26T10:35:55Z
2023-07-26T08:36:40Z,42.805,6.029,13.3037,4.60107,2470.624,2023-7-26T10:38:58Z
2023-07-26T08:39:44Z,42.805,6.029,13.3046,4.60122,2470.577,2023-7-26T10:42:01Z
2023-07-26T08:42:47Z,42.805,6.029,13.3037,4.60109,2470.637,2023-7-26T10:45:04Z
2023-07-26T08:45:50Z,42.805,6.029,13.3038,4.60128,2470.6,2023-7-26T10:48:07Z
2023-07-26T08:48:53Z,42.805,6.029,13.3036,4.60107,2470.591,2023-7-26T10:51:10Z
2023-07-26T08:51:56Z,42.805,6.029,13.3033,4.60113,2470.577,2023-7-26T10:54:13Z
2023-07-26T08:54:59Z,42.805,6.029,13.3031,4.60108,2470.577,2023-7-26T10:57:17Z
2023-07-26T08:58:02Z,42.805,6.029,13.3037,4.60117,2470.6,2023-7-26T11:00:20Z
2023-07-26T09:01:05Z,42.805,6.029,13.3043,4.60113,2470.591,2023-7-26T11:03:23Z
2023-07-26T09:04:08Z,42.805,6.029,13.3036,4.60116,2470.577,2023-7-26T11:06:26Z
2023-07-26T09:07:11Z,42.805,6.029,13.3043,4.60133,2470.6,2023-7-26T11:09:29Z
2023-07-26T09:10:14Z,42.805,6.029,13.3045,4.60122,2470.6,2023-7-26T11:12:32Z
2023-07-26T09:13:17Z,42.805,6.029,13.3031,4.60109,2470.614,2023-7-26T11:15:35Z
2023-07-26T09:16:21Z,42.805,6.029,13.3036,4.60110,2470.661,2023-7-26T11:18:38Z
2023-07-26T09:19:24Z,42.805,6.029,13.3039,4.60136,2470.614,2023-7-26T11:21:41Z
2023-07-26T09:22:27Z,42.805,6.029,13.3041,4.60138,2470.637,2023-7-26T11:24:44Z
2023-07-26T09:25:30Z,42.805,6.029,13.3029,4.60105,2470.6,2023-7-26T11:27:47Z
2023-07-26T09:28:33Z,42.805,6.029,13.3031,4.60121,2470.624,2023-7-26T11:30:51Z
2023-07-26T09:31:36Z,42.805,6.029,13.3036,4.60140,2470.614,2023-7-26T11:33:54Z
2023-07-26T09:34:39Z,42.805,6.029,13.3046,4.60149,2470.6,2023-7-26T11:36:57Z
2023-07-26T09:37:42Z,42.805,6.029,13.3053,4.60125,2470.591,2023-7-26T11:40:00Z
2023-07-26T09:40:45Z,42.805,6.029,13.3032,4.60110,2470.614,2023-7-26T11:43:03Z
2023-07-26T09:43:48Z,42.805,6.029,13.3034,4.60137,2470.614,2023-7-26T11:46:06Z
2023-07-26T09:46:51Z,42.805,6.029,13.3055,4.60132,2470.6,2023-7-26T11:49:09Z
2023-07-26T09:49:54Z,42.805,6.029,13.3045,4.60141,2470.6,2023-7-26T11:52:12Z
2023-07-26T09:52:58Z,42.805,6.029,13.3063,4.60139,2470.637,2023-7-26T11:55:15Z
2023-07-26T09:56:01Z,42.805,6.029,13.3065,4.60182,2470.637,2023-7-26T11:58:18Z
2023-07-26T09:59:04Z,42.805,6.029,13.3046,4.60162,2470.661,2023-7-26T12:01:21Z
2023-07-26T10:02:07Z,42.805,6.029,13.3034,4.60177,2470.637,2023-7-26T12:04:24Z
2023-07-26T10:05:10Z,42.805,6.029,13.3039,4.60140,2470.637,2023-7-26T12:07:28Z
2023-07-26T10:08:13Z,42.805,6.029,13.3041,4.60125,2470.637,2023-7-26T12:10:31Z
2023-07-26T10:11:16Z,42.805,6.029,13.3044,4.60147,2470.624,2023-7-26T12:13:34Z
2023-07-26T10:14:19Z,42.805,6.029,13.3058,4.60127,2470.637,2023-7-26T12:16:37Z
2023-07-26T10:17:22Z,42.805,6.029,13.3076,4.60144,2470.661,2023-7-26T12:19:40Z
2023-07-26T10:20:25Z,42.805,6.029,13.3053,4.60189,2470.661,2023-7-26T12:22:43Z
2023-07-26T10:23:28Z,42.805,6.029,13.3067,4.60178,2470.637,2023-7-26T12:25:46Z
2023-07-26T10:26:32Z,42.805,6.029,13.3082,4.60172,2470.637,2023-7-26T12:28:49Z
2023-07-26T10:29:35Z,42.805,6.029,13.3063,4.60180,2470.637,2023-7-26T12:31:52Z
2023-07-26T10:32:38Z,42.805,6.029,13.3054,4.60170,2470.661,2023-7-26T12:34:55Z
2023-07-26T10:35:41Z,42.805,6.029,13.3073,4.60150,2470.637,2023-7-26T12:37:58Z
2023-07-26T10:38:44Z,42.805,6.029,13.3063,4.60160,2470.646,2023-7-26T12:41:01Z
2023-07-26T10:41:47Z,42.805,6.029,13.3040,4.60222,2470.624,2023-7-26T12:44:05Z
2023-07-26T10:44:50Z,42.805,6.029,13.3039,4.60143,2470.661,2023-7-26T12:47:08Z
2023-07-26T10:47:53Z,42.805,6.029,13.3036,4.60140,2470.624,2023-7-26T12:50:11Z
2023-07-26T10:50:56Z,42.805,6.029,13.3038,4.60142,2470.661,2023-7-26T12:53:14Z
2023-07-26T10:53:59Z,42.805,6.029,13.3049,4.60177,2470.684,2023-7-26T12:56:17Z
2023-07-26T10:57:02Z,42.805,6.029,13.3073,4.60134,2470.646,2023-7-26T12:59:20Z
2023-07-26T11:00:06Z,42.805,6.029,13.3058,4.60170,2470.684,2023-7-26T13:02:23Z
2023-07-26T11:03:09Z,42.805,6.029,13.3083,4.60143,2470.646,2023-7-26T13:05:26Z
2023-07-26T11:06:12Z,42.805,6.029,13.3082,4.60164,2470.656,2023-7-26T13:08:29Z
2023-07-26T11:09:15Z,42.805,6.029,13.3085,4.60142,2470.637,2023-7-26T13:11:32Z
2023-07-26T11:12:18Z,42.805,6.029,13.3032,4.60157,2470.646,2023-7-26T13:14:35Z
2023-07-26T11:15:21Z,42.805,6.029,13.3059,4.60161,2470.67,2023-7-26T13:17:39Z
2023-07-26T11:18:24Z,42.805,6.029,13.3042,4.60141,2470.661,2023-7-26T13:20:42Z
2023-07-26T11:21:27Z,42.805,6.029,13.3046,4.60124,2470.646,2023-7-26T13:23:45Z
2023-07-26T11:24:30Z,42.805,6.029,13.3045,4.60166,2470.646,2023-7-26T13:26:48Z
2023-07-26T11:27:33Z,42.805,6.029,13.3058,4.60125,2470.67,2023-7-26T13:29:51Z
2023-07-26T11:30:36Z,42.805,6.029,13.3040,4.60125,2470.646,2023-7-26T13:32:54Z
2023-07-26T11:33:39Z,42.805,6.029,13.3043,4.60157,2470.684,2023-7-26T13:35:57Z
2023-07-26T11:36:43Z,42.805,6.029,13.3050,4.60143,2470.67,2023-7-26T13:39:00Z
2023-07-26T11:39:46Z,42.805,6.029,13.3061,4.60141,2470.684,2023-7-26T13:42:03Z
2023-07-26T11:42:49Z,42.805,6.029,13.3065,4.60164,2470.693,2023-7-26T13:45:06Z
2023-07-26T11:45:52Z,42.805,6.029,13.3073,4.60174,2470.684,2023-7-26T13:48:09Z
2023-07-26T11:48:55Z,42.805,6.029,13.3088,4.60167,2470.646,2023-7-26T13:51:13Z
2023-07-26T11:51:58Z,42.805,6.029,13.3080,4.60137,2470.646,2023-7-26T13:54:16Z
2023-07-26T11:55:01Z,42.805,6.029,13.3053,4.60173,2470.684,2023-7-26T13:57:19Z
2023-07-26T11:58:04Z,42.805,6.029,13.3048,4.60173,2470.646,2023-7-26T14:00:22Z
2023-07-26T12:01:07Z,42.805,6.029,13.3053,4.60181,2470.646,2023-7-26T14:03:25Z
2023-07-26T12:04:10Z,42.805,6.029,13.3067,4.60124,2470.67,2023-7-26T14:06:28Z
2023-07-26T12:07:13Z,42.805,6.029,13.3076,4.60132,2470.693,2023-7-26T14:09:31Z
2023-07-26T12:10:17Z,42.805,6.029,13.3072,4.60179,2470.684,2023-7-26T14:12:34Z
2023-07-26T12:13:20Z,42.805,6.029,13.3051,4.60160,2470.684,2023-7-26T14:15:37Z
2023-07-26T12:16:23Z,42.805,6.029,13.3052,4.60192,2470.684,2023-7-26T14:18:40Z
2023-07-26T12:19:26Z,42.805,6.029,13.3048,4.60223,2470.646,2023-7-26T14:21:43Z
2023-07-26T12:22:29Z,42.805,6.029,13.3050,4.60170,2470.646,2023-7-26T14:24:46Z
2023-07-26T12:25:32Z,42.805,6.029,13.3080,4.60155,2470.684,2023-7-26T14:27:50Z
2023-07-26T12:28:35Z,42.805,6.029,13.3054,4.60179,2470.684,2023-7-26T14:30:53Z
2023-07-26T12:31:38Z,42.805,6.029,13.3061,4.60144,2470.693,2023-7-26T14:33:56Z
2023-07-26T12:34:41Z,42.805,6.029,13.3043,4.60173,2470.693,2023-7-26T14:36:59Z
2023-07-26T12:37:44Z,42.805,6.029,13.3048,4.60125,2470.67,2023-7-26T14:40:02Z
2023-07-26T12:40:47Z,42.805,6.029,13.3052,4.60155,2470.707,2023-7-26T14:43:05Z
2023-07-26T12:43:50Z,42.805,6.029,13.3061,4.60131,2470.646,2023-7-26T14:46:08Z
2023-07-26T12:46:54Z,42.805,6.029,13.3063,4.60122,2470.67,2023-7-26T14:49:11Z
2023-07-26T12:49:57Z,42.805,6.029,13.3051,4.60143,2470.684,2023-7-26T14:52:14Z
2023-07-26T12:53:00Z,42.805,6.029,13.3058,4.60114,2470.646,2023-7-26T14:55:17Z
2023-07-26T12:56:03Z,42.805,6.029,13.3064,4.60104,2470.661,2023-7-26T14:58:20Z
2023-07-26T12:59:06Z,42.805,6.029,13.3063,4.60125,2470.684,2023-7-26T15:01:24Z
2023-07-26T13:02:09Z,42.805,6.029,13.3070,4.60147,2470.684,2023-7-26T15:04:27Z
2023-07-26T13:05:12Z,42.805,6.029,13.3076,4.60173,2470.67,2023-7-26T15:07:30Z
2023-07-26T13:08:15Z,42.805,6.029,13.3112,4.60171,2470.646,2023-7-26T15:10:33Z
2023-07-26T13:11:18Z,42.805,6.029,13.3070,4.60137,2470.661,2023-7-26T15:13:36Z
2023-07-26T13:14:21Z,42.805,6.029,13.3088,4.60165,2470.707,2023-7-26T15:16:39Z
2023-07-26T13:17:24Z,42.805,6.029,13.3096,4.60193,2470.684,2023-7-26T15:19:42Z
2023-07-26T13:20:28Z,42.805,6.029,13.3078,4.60163,2470.646,2023-7-26T15:22:45Z
2023-07-26T13:23:31Z,42.805,6.029,13.3076,4.60146,2470.67,2023-7-26T15:25:48Z
2023-07-26T13:26:34Z,42.805,6.029,13.3090,4.60113,2470.684,2023-7-26T15:28:51Z
2023-07-26T13:29:37Z,42.805,6.029,13.3104,4.60157,2470.67,2023-7-26T15:31:54Z
2023-07-26T13:32:40Z,42.805,6.029,13.3091,4.60136,2470.67,2023-7-26T15:34:57Z
2023-07-26T13:35:43Z,42.805,6.029,13.3079,4.60122,2470.661,2023-7-26T15:38:01Z
2023-07-26T13:38:46Z,42.805,6.029,13.3085,4.60131,2470.684,2023-7-26T15:41:04Z
2023-07-26T13:41:49Z,42.805,6.029,13.3077,4.60160,2470.67,2023-7-26T15:44:07Z
2023-07-26T13:44:52Z,42.805,6.029,13.3068,4.60140,2470.707,2023-7-26T15:47:10Z
2023-07-26T13:47:55Z,42.805,6.029,13.3056,4.60168,2470.67,2023-7-26T15:50:13Z
2023-07-26T13:50:58Z,42.805,6.029,13.3073,4.60116,2470.661,2023-7-26T15:53:16Z
2023-07-26T13:54:01Z,42.805,6.029,13.3048,4.60137,2470.684,2023-7-26T15:56:19Z
2023-07-26T13:57:05Z,42.805,6.029,13.3059,4.60173,2470.656,2023-7-26T15:59:22Z
2023-07-26T14:00:08Z,42.805,6.029,13.3079,4.60153,2470.646,2023-7-26T16:02:25Z
2023-07-26T14:03:11Z,42.805,6.029,13.3086,4.60163,2470.693,2023-7-26T16:05:28Z
2023-07-26T14:06:14Z,42.805,6.029,13.3086,4.60132,2470.661,2023-7-26T16:08:31Z
2023-07-26T14:09:17Z,42.805,6.029,13.3063,4.60105,2470.684,2023-7-26T16:11:34Z
2023-07-26T14:12:20Z,42.805,6.029,13.3073,4.60142,2470.646,2023-7-26T16:14:38Z
2023-07-26T14:15:23Z,42.805,6.029,13.3078,4.60111,2470.684,2023-7-26T16:17:41Z
2023-07-26T14:18:26Z,42.805,6.029,13.3069,4.60122,2470.67,2023-7-26T16:20:44Z
2023-07-26T14:21:29Z,42.805,6.029,13.3067,4.60142,2470.693,2023-7-26T16:23:47Z
2023-07-26T14:24:32Z,42.805,6.029,13.3057,4.60114,2470.637,2023-7-26T16:26:50Z
2023-07-26T14:27:35Z,42.805,6.029,13.3087,4.60097,2470.684,2023-7-26T16:29:53Z
2023-07-26T14:30:40Z,42.805,6.029,13.3026,4.60103,2470.67,2023-7-26T16:32:57Z
2023-07-26T14:33:43Z,42.805,6.029,13.3031,4.60101,2470.637,2023-7-26T16:36:00Z
2023-07-26T14:36:46Z,42.805,6.029,13.3024,4.60094,2470.693,2023-7-26T16:39:03Z
2023-07-26T14:39:49Z,42.805,6.029,13.3030,4.60095,2470.67,2023-7-26T16:42:06Z
2023-07-26T14:42:52Z,42.805,6.029,13.3025,4.60095,2470.646,2023-7-26T16:45:10Z
2023-07-26T14:45:55Z,42.805,6.029,13.3025,4.60094,2470.684,2023-7-26T16:48:13Z
2023-07-26T14:48:58Z,42.805,6.029,13.3025,4.60089,2470.67,2023-7-26T16:51:16Z
2023-07-26T14:52:01Z,42.805,6.029,13.3028,4.60096,2470.67,2023-7-26T16:54:19Z
2023-07-26T14:55:04Z,42.805,6.029,13.3025,4.60096,2470.661,2023-7-26T16:57:22Z
2023-07-26T14:58:07Z,42.805,6.029,13.3024,4.60091,2470.693,2023-7-26T17:00:25Z
2023-07-26T15:01:10Z,42.805,6.029,13.3022,4.60090,2470.646,2023-7-26T17:03:28Z
2023-07-26T15:04:14Z,42.805,6.029,13.3024,4.60087,2470.624,2023-7-26T17:06:31Z
2023-07-26T15:07:17Z,42.805,6.029,13.3024,4.60087,2470.661,2023-7-26T17:09:34Z
2023-07-26T15:10:20Z,42.805,6.029,13.3024,4.60092,2470.684,2023-7-26T17:12:37Z
2023-07-26T15:13:23Z,42.805,6.029,13.3023,4.60087,2470.693,2023-7-26T17:15:40Z